Flag for Brazil Weather past 2 weeks in Joinville, Santa Catarina, Brazil

Now
68 °F

Light rain. Low clouds.


Feels Like: 68 °F
Forecast: 69 / 73 °F
Wind: 6 mph from Southwest

Location: Curitiba Aeroporto

Current Time: May 25, 2015 at 1:48:11 PM

Latest Report: May 25, 2015 at 1:00 PM


Visibility: 1 mi

Pressure: 30.09 "Hg

Humidity: 88%

Dew point: 64 °F

Location of JoinvilleLocation

Historic Weather in Joinville — Graph

°F

Joinville temperature yesterday

Maximum temperature yesterday: 79 °F (at 1:00 PM)
Minimum temperature yesterday: 61 °F (at 2:00 AM)
Average temperature yesterday: 68 °F

Past Weeks' High & Low Weather Summary

 TemperatureHumidityPressure
High79 °F (May 24, 1:00 PM)100% (May 10, 7:00 PM)30.36 "Hg (May 10, 7:00 PM)
Low52 °F (May 13, 5:00 AM)51% (May 23, 3:00 PM)29.95 "Hg (May 11, 5:00 AM)
Average61 °F86%30.21 "Hg
* Reported May 10 1:00 PM — May 25 1:00 PM, Joinville, Weather by CustomWeather, © 2015

Note: Actual official high and low records may vary slightly from our data, if they occured in-between our weather recording intervals... More about our weather records

Advertising

Joinville weather history for previous 24 hours

 ConditionsComfort  
Time TempWeatherWind HumidityBarometerVisibility
1:00 PM
Mon, May 25
68 °FLight rain. Low clouds.6 mph88%30.09 "Hg1 mi
12:00 PM70 °FMostly cloudy.5 mph88%30.12 "HgN/A
11:00 AM68 °FLight rain. Fog.7 mph88%30.15 "Hg1 mi
10:00 AM68 °FLight rain. More clouds than sun.3 mph94%30.15 "Hg2 mi
9:00 AM66 °FLight rain. Low clouds.3 mph94%30.12 "Hg2 mi
8:00 AM66 °FLight rain. More clouds than sun.9 mph94%30.12 "Hg3 mi
7:00 AM66 °FLight rain. Cloudy.6 mph94%30.09 "Hg4 mi
6:00 AM64 °FLight rain. Partly sunny.5 mph94%30.07 "HgN/A
5:00 AM64 °FPassing clouds.6 mph94%30.07 "HgN/A
4:00 AM64 °FPassing clouds.6 mph94%30.07 "HgN/A
3:00 AM64 °FPassing clouds.5 mph94%30.07 "HgN/A
2:00 AM64 °FPassing clouds.5 mph94%30.07 "HgN/A
1:00 AM66 °FPassing clouds.5 mph88%30.09 "HgN/A
12:00 AM66 °FPassing clouds.6 mph88%30.09 "HgN/A
11:00 PM
Sun, May 24
66 °FPassing clouds.3 mph88%30.09 "HgN/A
10:00 PM68 °FPassing clouds.5 mph83%30.09 "HgN/A
9:00 PM68 °FPassing clouds.3 mph88%30.09 "Hg5 mi
8:00 PM68 °FPartly cloudy.5 mph88%30.07 "Hg5 mi
7:00 PM72 °FPartly cloudy.5 mph73%30.07 "HgN/A
6:00 PM72 °FPassing clouds.3 mph73%30.07 "HgN/A
5:00 PM73 °FPassing clouds.6 mph69%30.04 "HgN/A
4:00 PM75 °FPartly sunny.8 mph65%30.04 "HgN/A
3:00 PM75 °FPartly sunny.12 mph65%30.04 "HgN/A
2:00 PM75 °FScattered clouds.15 mph61%30.04 "HgN/A
1:00 PM79 °FPassing clouds.17 mph54%30.07 "HgN/A
Weather by CustomWeather, © 2015

See weather overviewHow to use our weather pages